Location: Baia Mare
(47.6567°N, 23.5850°E)
Time: 17:00:10
(UTC+03:00)

ISS - Pass Details

Date: 28 May 2018
Orbit: 403 x 407 km, 51.6° (Epoch: 26 June)

Event Time Altitude Azimuth Distance (km) Brightness Sun altitude
Rises 00:18:56 0° 292° (WNW) 2,324 0.6 -19.5°
Reaches altitude 10° 00:21:03 10° 296° (WNW) 1,462 -0.5 -19.6°
Maximum altitude 00:24:17 56° 16° (NNE) 485 -3.2 -19.7°
Enters shadow 00:25:13 38° 74° (ENE) 629 -2.9 -19.7°
